User: anonymous   Login
Location: Unspecified
(0.0000°N, 0.0000°E)
Time: 18:25:59
(UTC+00:00)
Language:

OPS 7613 P/L 1 - Orbit

View from above orbital plane
View from above orbital plane
View from above satellite
View from above satellite

Ground track
Ground track

The orbit data is extracted from the following two-line orbital elements,

1  4256U 69082B   17080.93078672 +.00000026 +00000-0 +55572-4 0  9996
2  4256 070.0126 005.7825 0019026 168.5138 191.6407 13.98248847418704
Epoch (UTC): 21 March 2017 22:20:19
Eccentricity: 0.0019026
inclination: 70.0126°
perigee height: 886 km
apogee height: 914 km
right ascension of ascending node: 5.7825°
argument of perigee: 168.5138°
revolutions per day: 13.98248847
mean anomaly at epoch: 191.6407°
orbit number at epoch: 41870

The dashed part of the orbit path shows where the satellite is in the earth's shadow,  

DLR